When you browse on this site, cookies collect data to enhance your experience and personalize the content and advertising you see.
Visit our Privacy Policy to learn more. By continuing to use the site, you agree to this use of cookies and data.
  • In Schweiz
  • Länderverzeichnis
  • Für 7 Tage
  • Wassertemperatur
  • Satellitenkarten
  • Wetterkarte
  • Widgets
  • user-avatar
    Anmelden

    Stündliche Wetter Lyahi

    Heute, 25 Juni, Dienstag

    Zeit Temperatur Niederschläge Wind Luftdruck Luftfeuchtigkeit
    00:00 +17°C° 0 mm 2 m/S 756 mmHg 85%
    01:00 +17°C° 0 mm 2 m/S 756 mmHg 87%
    02:00 +16°C° 0 mm 2 m/S 756 mmHg 90%
    03:00 +16°C° 0 mm 2 m/S 756 mmHg 90%
    04:00 +16°C° 0 mm 2 m/S 756 mmHg 90%
    05:00 +16°C° 0 mm 2 m/S 756 mmHg 90%
    06:00 +18°C° 0 mm 2 m/S 757 mmHg 84%
    07:00 +20°C° 0 mm 2 m/S 757 mmHg 79%
    08:00 +21°C° 0 mm 2 m/S 757 mmHg 74%
    09:00 +24°C° 0 mm 2 m/S 757 mmHg 68%
    10:00 +25°C° 0 mm 3 m/S 757 mmHg 62%
    11:00 +26°C° 0 mm 3 m/S 757 mmHg 56%
    12:00 +26°C° 0 mm 3 m/S 757 mmHg 55%
    13:00 +27°C° 0 mm 3 m/S 757 mmHg 54%
    14:00 +27°C° 0 mm 3 m/S 757 mmHg 53%
    15:00 +27°C° 0 mm 3 m/S 757 mmHg 54%
    16:00 +27°C° 0 mm 2 m/S 757 mmHg 56%
    17:00 +27°C° 0 mm 2 m/S 756 mmHg 57%
    18:00 +25°C° 0 mm 2 m/S 756 mmHg 63%
    19:00 +24°C° 0 mm 2 m/S 756 mmHg 69%
    20:00 +23°C° 0 mm 1 m/S 756 mmHg 74%
    21:00 +21°C° 0 mm 1 m/S 756 mmHg 77%
    22:00 +20°C° 0 mm 1 m/S 756 mmHg 80%
    23:00 +19°C° 0 mm 1 m/S 756 mmHg 84%

    Morgen, 26 Juni, Mittwoch

    Zeit Temperatur Niederschläge Wind Luftdruck Luftfeuchtigkeit
    00:00 +18°C° 0 mm 2 m/S 756 mmHg 84%
    01:00 +17°C° 0 mm 2 m/S 756 mmHg 85%
    02:00 +17°C° 0 mm 2 m/S 756 mmHg 86%
    03:00 +17°C° 0 mm 2 m/S 756 mmHg 87%
    04:00 +17°C° 0 mm 2 m/S 755 mmHg 88%
    05:00 +17°C° 0 mm 2 m/S 755 mmHg 89%
    06:00 +18°C° 0 mm 2 m/S 755 mmHg 85%
    07:00 +20°C° 0 mm 2 m/S 755 mmHg 81%
    08:00 +21°C° 0 mm 2 m/S 754 mmHg 77%
    09:00 +24°C° 0 mm 3 m/S 754 mmHg 73%
    10:00 +25°C° 0 mm 3 m/S 754 mmHg 70%
    11:00 +27°C° 0 mm 4 m/S 753 mmHg 66%
    12:00 +28°C° 0 mm 4 m/S 753 mmHg 64%
    13:00 +29°C° 0 mm 4 m/S 753 mmHg 62%
    14:00 +29°C° 0 mm 4 m/S 752 mmHg 60%
    15:00 +30°C° 0 mm 4 m/S 751 mmHg 61%
    16:00 +30°C° 0 mm 4 m/S 750 mmHg 62%
    17:00 +30°C° 0 mm 4 m/S 750 mmHg 63%
    18:00 +29°C° 0 mm 4 m/S 749 mmHg 68%
    19:00 +28°C° 0 mm 4 m/S 748 mmHg 73%
    20:00 +27°C° 0 mm 4 m/S 748 mmHg 78%
    21:00 +26°C° 0 mm 4 m/S 747 mmHg 81%
    22:00 +25°C° 0 mm 4 m/S 747 mmHg 84%
    23:00 +24°C° 0 mm 3 m/S 746 mmHg 86%

    übermorgen, 27 Juni, Donnerstag

    Zeit Temperatur Niederschläge Wind Luftdruck Luftfeuchtigkeit
    00:00 +23°C° 0.6 mm 4 m/S 746 mmHg 88%
    01:00 +22°C° 0.6 mm 4 m/S 746 mmHg 90%
    02:00 +22°C° 0.6 mm 5 m/S 745 mmHg 91%
    03:00 +21°C° 0.1 mm 5 m/S 745 mmHg 92%
    04:00 +20°C° 0.1 mm 6 m/S 744 mmHg 92%
    05:00 +19°C° 0.1 mm 6 m/S 744 mmHg 93%
    06:00 +19°C° 0 mm 6 m/S 744 mmHg 91%
    07:00 +19°C° 0 mm 6 m/S 744 mmHg 90%
    08:00 +19°C° 0 mm 6 m/S 745 mmHg 88%
    09:00 +20°C° 0.1 mm 6 m/S 745 mmHg 82%
    10:00 +20°C° 0.1 mm 7 m/S 745 mmHg 76%
    11:00 +21°C° 0.1 mm 7 m/S 745 mmHg 70%
    12:00 +22°C° 0.1 mm 7 m/S 745 mmHg 67%
    13:00 +23°C° 0.1 mm 7 m/S 745 mmHg 63%
    14:00 +23°C° 0.1 mm 7 m/S 745 mmHg 60%
    15:00 +23°C° 0.2 mm 7 m/S 745 mmHg 62%
    16:00 +22°C° 0.2 mm 6 m/S 745 mmHg 63%
    17:00 +22°C° 0.2 mm 6 m/S 745 mmHg 65%
    18:00 +20°C° 0 mm 6 m/S 745 mmHg 66%
    19:00 +19°C° 0 mm 5 m/S 745 mmHg 68%
    20:00 +17°C° 0 mm 5 m/S 745 mmHg 69%
    21:00 +16°C° 0 mm 5 m/S 745 mmHg 70%
    22:00 +14°C° 0 mm 5 m/S 746 mmHg 71%
    23:00 +13°C° 0 mm 5 m/S 746 mmHg 72%

    28 Juni, Freitag

    Zeit Temperatur Niederschläge Wind Luftdruck Luftfeuchtigkeit
    00:00 +13°C° 0 mm 5 m/S 746 mmHg 73%
    01:00 +12°C° 0 mm 5 m/S 746 mmHg 74%
    02:00 +10°C° 0 mm 5 m/S 746 mmHg 76%
    03:00 +10°C° 0 mm 5 m/S 746 mmHg 77%
    04:00 +10°C° 0 mm 5 m/S 746 mmHg 78%
    05:00 +10°C° 0 mm 5 m/S 746 mmHg 79%
    06:00 +11°C° 0 mm 6 m/S 746 mmHg 73%
    07:00 +14°C° 0 mm 7 m/S 746 mmHg 67%
    08:00 +15°C° 0 mm 8 m/S 746 mmHg 60%
    09:00 +16°C° 0 mm 8 m/S 746 mmHg 58%
    10:00 +17°C° 0 mm 8 m/S 746 mmHg 57%
    11:00 +18°C° 0 mm 8 m/S 746 mmHg 55%
    12:00 +18°C° 0.1 mm 8 m/S 746 mmHg 53%
    13:00 +20°C° 0.1 mm 8 m/S 746 mmHg 52%
    14:00 +21°C° 0.1 mm 8 m/S 746 mmHg 51%
    15:00 +20°C° 0 mm 7 m/S 746 mmHg 53%
    16:00 +20°C° 0 mm 7 m/S 746 mmHg 56%
    17:00 +19°C° 0 mm 6 m/S 746 mmHg 58%
    18:00 +17°C° 0 mm 6 m/S 746 mmHg 63%
    19:00 +16°C° 0 mm 5 m/S 746 mmHg 68%
    20:00 +15°C° 0 mm 5 m/S 746 mmHg 73%
    21:00 +14°C° 0 mm 5 m/S 746 mmHg 76%
    22:00 +13°C° 0 mm 5 m/S 747 mmHg 78%
    23:00 +12°C° 0 mm 5 m/S 747 mmHg 80%

    29 Juni, Samstag

    Zeit Temperatur Niederschläge Wind Luftdruck Luftfeuchtigkeit
    00:00 +10°C° 0 mm 5 m/S 747 mmHg 81%
    01:00 +10°C° 0 mm 5 m/S 747 mmHg 81%
    02:00 +9°C° 0 mm 5 m/S 747 mmHg 81%
    03:00 +9°C° 0 mm 5 m/S 747 mmHg 80%
    04:00 +8°C° 0 mm 5 m/S 748 mmHg 79%
    05:00 +8°C° 0 mm 5 m/S 748 mmHg 78%
    06:00 +9°C° 0 mm 6 m/S 748 mmHg 72%
    07:00 +11°C° 0 mm 7 m/S 748 mmHg 66%
    08:00 +12°C° 0 mm 7 m/S 748 mmHg 61%
    09:00 +15°C° 0 mm 7 m/S 748 mmHg 59%
    10:00 +16°C° 0 mm 7 m/S 748 mmHg 57%
    11:00 +17°C° 0 mm 7 m/S 748 mmHg 56%
    12:00 +18°C° 0 mm 7 m/S 748 mmHg 54%
    13:00 +19°C° 0 mm 6 m/S 748 mmHg 53%
    14:00 +20°C° 0 mm 6 m/S 748 mmHg 51%
    15:00 +20°C° 0.1 mm 5 m/S 748 mmHg 53%
    16:00 +20°C° 0.1 mm 5 m/S 748 mmHg 56%
    17:00 +20°C° 0.1 mm 5 m/S 748 mmHg 58%
    18:00 +19°C° 0 mm 4 m/S 748 mmHg 63%
    19:00 +18°C° 0 mm 3 m/S 748 mmHg 69%
    20:00 +17°C° 0 mm 3 m/S 748 mmHg 74%
    21:00 +16°C° 0 mm 3 m/S 748 mmHg 77%
    22:00 +14°C° 0 mm 3 m/S 748 mmHg 80%
    23:00 +12°C° 0 mm 3 m/S 748 mmHg 83%

    30 Juni, Sonntag

    Zeit Temperatur Niederschläge Wind Luftdruck Luftfeuchtigkeit
    00:00 +12°C° 0 mm 3 m/S 748 mmHg 83%
    01:00 +12°C° 0 mm 3 m/S 748 mmHg 82%
    02:00 +12°C° 0 mm 3 m/S 749 mmHg 82%
    03:00 +12°C° 0 mm 3 m/S 749 mmHg 80%
    04:00 +14°C° 0 mm 2 m/S 749 mmHg 79%
    05:00 +14°C° 0 mm 2 m/S 749 mmHg 78%
    06:00 +15°C° 0 mm 2 m/S 749 mmHg 75%
    07:00 +16°C° 0 mm 2 m/S 749 mmHg 73%
    08:00 +17°C° 0 mm 3 m/S 749 mmHg 71%
    09:00 +19°C° 0 mm 3 m/S 749 mmHg 65%
    10:00 +21°C° 0 mm 3 m/S 749 mmHg 60%
    11:00 +22°C° 0 mm 3 m/S 749 mmHg 55%
    12:00 +25°C° 0 mm 3 m/S 749 mmHg 54%
    13:00 +26°C° 0 mm 4 m/S 749 mmHg 53%
    14:00 +27°C° 0 mm 4 m/S 748 mmHg 53%
    15:00 +27°C° 0 mm 4 m/S 748 mmHg 54%
    16:00 +27°C° 0 mm 4 m/S 748 mmHg 55%
    17:00 +27°C° 0 mm 3 m/S 748 mmHg 57%
    18:00 +26°C° 0 mm 3 m/S 747 mmHg 62%
    19:00 +24°C° 0 mm 3 m/S 747 mmHg 68%
    20:00 +22°C° 0 mm 3 m/S 747 mmHg 73%
    21:00 +21°C° 0 mm 3 m/S 747 mmHg 74%
    22:00 +20°C° 0 mm 3 m/S 747 mmHg 75%
    23:00 +19°C° 0 mm 3 m/S 747 mmHg 76%
    Mehr zeigen